(°F)
37°
38°
40°
41°
43°
44°
45°
(°F)
28°
29°
31°
32°
33°
34°
35°
NW
NNW
NW
NW
NW
NW
NW
(mph)
6-19
7-18
7-19
7-20
7-20
7-21
8-20
(in)
0
0
0
0
0
0
0
(%)
0
0
7
7
7
14
20

Sun elevation

/ 17.1°
sun-icon
UV 2
03:19
19:58
Waning gibbous moon (253°)
01:08
08:09

METAR for 55.61°N 49.28°E (UWKD)

Time Conditions Temperature/
Dewpoint
Wind Visibility Weather Clouds Pressure Change Raw
VFR 37.4°F / 33.8°F 340º 14kt >10km - Clouds and Visibility OK 1007 No Significant change. Runway 29: Wet or puddles, with <1mm, friction coefficient 0.60. UWKD 210200Z 34007MPS CAVOK 03/01 Q1007 R29/2/0060 NOSIG RMK QFE744/0992
VFR 37.4°F / 33.8°F 340º 14kt >10km - Clouds and Visibility OK 1007 No Significant change. Runway 29: Wet or puddles, with <1mm, friction coefficient 0.60. UWKD 210130Z 34007MPS CAVOK 03/01 Q1007 R29/2/0060 NOSIG RMK QFE744/0992
VFR 37.4°F / 33.8°F 340º 12kt >10km - Clouds and Visibility OK 1007 No Significant change. Runway 29: Wet or puddles, with <1mm, friction coefficient 0.60. UWKD 210100Z 34006MPS CAVOK 03/01 Q1007 R29/2/0060 NOSIG RMK QFE744/0992
VFR 37.4°F / 33.8°F 330º 12kt >10km - Clouds and Visibility OK 1007 No Significant change. Runway 29: Wet or puddles, with <1mm, friction coefficient 0.60. UWKD 210030Z 33006MPS CAVOK 03/01 Q1007 R29/2/0060 NOSIG RMK QFE744/0992
VFR 37.4°F / 33.8°F 330º 10kt >10km - Clouds and Visibility OK 1007 No Significant change. Runway 29: Wet or puddles, with <1mm, friction coefficient 0.60. UWKD 210000Z 33005MPS CAVOK 03/01 Q1007 R29/2/0060 NOSIG RMK QFE744/0992
VFR 37.4°F / 33.8°F 330º 10kt >10km - Clouds and Visibility OK 1007 No Significant change. Runway 29: Wet or puddles, with <1mm, friction coefficient 0.60. UWKD 202330Z 33005MPS CAVOK 03/01 Q1007 R29/2/0060 NOSIG RMK QFE744/0992
VFR 39.2°F / 33.8°F 330º 10kt >10km - Clouds and Visibility OK 1007 No Significant change. Runway 29: Wet or puddles, with <1mm, friction coefficient 0.60. UWKD 202300Z 33005MPS CAVOK 04/01 Q1007 R29/2/0060 NOSIG RMK QFE744/0992
VFR 39.2°F / 33.8°F 330º 12kt >10km - Clouds and Visibility OK 1007 No Significant change. Runway 29: Wet or puddles, with <1mm, friction coefficient 0.60. UWKD 202230Z 33006MPS CAVOK 04/01 Q1007 R29/2/0060 NOSIG RMK QFE744/0992
VFR 39.2°F / 33.8°F 330º 8kt >10km - Clouds and Visibility OK 1007 No Significant change. Runway 29: Wet or puddles, with <1mm, friction coefficient 0.60. UWKD 202200Z 33004MPS CAVOK 04/01 Q1007 R29/2/0060 NOSIG RMK QFE744/0992
VFR 39.2°F / 35.6°F 330º 10kt >10km - Clouds and Visibility OK 1007 No Significant change. Runway 29: Wet or puddles, with <1mm, friction coefficient 0.60. UWKD 202130Z 33005MPS CAVOK 04/02 Q1007 R29/2/0060 NOSIG RMK QFE744/0992
VFR 39.2°F / 35.6°F 320º 10kt >10km - Clouds and Visibility OK 1007 No Significant change. Runway 29: Wet or puddles, with <1mm, friction coefficient 0.60. UWKD 202100Z 32005MPS CAVOK 04/02 Q1007 R29/2/0060 NOSIG RMK QFE744/0992
VFR 37.4°F / 33.8°F 310º 8kt >10km - Clouds and Visibility OK 1007 No Significant change. Runway 29: Wet or puddles, with <1mm, friction coefficient 0.60. UWKD 202030Z 31004MPS CAVOK 03/01 Q1007 R29/2/0060 NOSIG RMK QFE744/0993
VFR 37.4°F / 33.8°F 340º 10kt >10km - Clouds and Visibility OK 1008 No Significant change. Runway 29: Wet or puddles, with <1mm, friction coefficient 0.60. UWKD 202000Z 34005MPS CAVOK 03/01 Q1008 R29/2/0060 NOSIG RMK QFE745/0993
VFR 39.2°F / 33.8°F 340º 10kt >10km - Clouds and Visibility OK 1008 No Significant change. Runway 29: Wet or puddles, with <1mm, friction coefficient 0.60. UWKD 201930Z 34005MPS CAVOK 04/01 Q1008 R29/2/0060 NOSIG RMK QFE745/0994
VFR 41°F / 33.8°F 360º 8kt >10km - Broken Clouds 4900ft 1008 No Significant change. Runway 29: Wet or puddles, with <1mm, friction coefficient 0.60. UWKD 201900Z 36004MPS 9999 BKN049 05/01 Q1008 R29/2/0060 NOSIG RMK QFE745/0994
VFR 41°F / 33.8°F 330º 8kt >10km - Few Clouds 4400ft 1008 No Significant change. Runway 29: Wet or puddles, with <1mm, friction coefficient 0.60. UWKD 201830Z 33004MPS 9999 FEW044 05/01 Q1008 R29/2/0060 NOSIG RMK QFE745/0994
VFR 41°F / 33.8°F 330º 8kt >10km - Clouds and Visibility OK 1008 No Significant change. Runway 29: Wet or puddles, with <1mm, friction coefficient 0.60. UWKD 201800Z 33004MPS CAVOK 05/01 Q1008 R29/2/0060 NOSIG RMK QFE745/0994
VFR 41°F / 33.8°F 340º 10kt >10km - Clouds and Visibility OK 1009 No Significant change. Runway 29: Wet or puddles, with <1mm, friction coefficient 0.60. UWKD 201730Z 34005MPS CAVOK 05/01 Q1009 R29/2/0060 NOSIG RMK QFE745/0994
VFR 42.8°F / 33.8°F 340º 10kt >10km - Clouds and Visibility OK 1009 No Significant change. Runway 29: Wet or puddles, with <1mm, friction coefficient 0.50. UWKD 201700Z 34005MPS CAVOK 06/01 Q1009 R29/2/0050 NOSIG RMK QFE745/0994
VFR 44.6°F / 35.6°F 340º 10kt >10km - Broken Clouds 5000ft 1009 No Significant change. Runway 29: Wet or puddles, with <1mm, friction coefficient 0.50. UWKD 201630Z 34005MPS 9999 BKN050CB 07/02 Q1009 R29/2/0050 NOSIG RMK QFE745/0994
VFR 44.6°F / 35.6°F 340º 8kt >10km - Scattered Clouds 5000ft 1009 No Significant change. Runway 29: Wet or puddles, with <1mm, friction coefficient 0.50. UWKD 201600Z 34004MPS 9999 SCT050CB 07/02 Q1009 R29/2/0050 NOSIG RMK QFE746/0994
VFR 44.6°F / 39.2°F 10º 12kt >10km - Broken Clouds 5000ft 1009 No Significant change. Runway 29: Wet or puddles, with <1mm, friction coefficient 0.50. UWKD 201530Z 01006MPS 9999 BKN050CB 07/04 Q1009 R29/2/0050 NOSIG RMK QFE746/0994
MVFR 42.8°F / 35.6°F 50º variable 360º to 140º 6kt >10km Light Showers Rain 3.00mm precipitation Vertical Visibility of 0ft. 1009 No Significant change. Runway 29: Wet or puddles, with <1mm, friction coefficient 0.50. UWKD 201500Z 05003MPS 360V140 9999 -SHRA BKN027CB 06/02 Q1009 R29/2/0050 NOSIG RMK QFE746/0994
VFR 42.8°F / 37.4°F 60º variable 030º to 090º 6kt >10km - Broken Clouds 3900ft 1009 No Significant change. Runway 29: Wet or puddles, with <1mm, friction coefficient 0.50. UWKD 201430Z 06003MPS 030V090 9999 BKN039CB 06/03 Q1009 R29/2/0050 NOSIG RMK QFE746/0994

VFR

37.4°F / 33.8°F

[More]
Wind 340º 14kt
Visibility >10km
Weather -
Clouds Clouds and Visibility OK
Pressure 1007
Change No Significant change. Runway 29: Wet or puddles, with <1mm, friction coefficient 0.60.
Raw UWKD 210200Z 34007MPS CAVOK 03/01 Q1007 R29/2/0060 NOSIG RMK QFE744/0992

VFR

37.4°F / 33.8°F

[More]
Wind 340º 14kt
Visibility >10km
Weather -
Clouds Clouds and Visibility OK
Pressure 1007
Change No Significant change. Runway 29: Wet or puddles, with <1mm, friction coefficient 0.60.
Raw UWKD 210130Z 34007MPS CAVOK 03/01 Q1007 R29/2/0060 NOSIG RMK QFE744/0992

VFR

37.4°F / 33.8°F

[More]
Wind 340º 12kt
Visibility >10km
Weather -
Clouds Clouds and Visibility OK
Pressure 1007
Change No Significant change. Runway 29: Wet or puddles, with <1mm, friction coefficient 0.60.
Raw UWKD 210100Z 34006MPS CAVOK 03/01 Q1007 R29/2/0060 NOSIG RMK QFE744/0992

VFR

37.4°F / 33.8°F

[More]
Wind 330º 12kt
Visibility >10km
Weather -
Clouds Clouds and Visibility OK
Pressure 1007
Change No Significant change. Runway 29: Wet or puddles, with <1mm, friction coefficient 0.60.
Raw UWKD 210030Z 33006MPS CAVOK 03/01 Q1007 R29/2/0060 NOSIG RMK QFE744/0992

VFR

37.4°F / 33.8°F

[More]
Wind 330º 10kt
Visibility >10km
Weather -
Clouds Clouds and Visibility OK
Pressure 1007
Change No Significant change. Runway 29: Wet or puddles, with <1mm, friction coefficient 0.60.
Raw UWKD 210000Z 33005MPS CAVOK 03/01 Q1007 R29/2/0060 NOSIG RMK QFE744/0992

VFR

37.4°F / 33.8°F

[More]
Wind 330º 10kt
Visibility >10km
Weather -
Clouds Clouds and Visibility OK
Pressure 1007
Change No Significant change. Runway 29: Wet or puddles, with <1mm, friction coefficient 0.60.
Raw UWKD 202330Z 33005MPS CAVOK 03/01 Q1007 R29/2/0060 NOSIG RMK QFE744/0992

VFR

39.2°F / 33.8°F

[More]
Wind 330º 10kt
Visibility >10km
Weather -
Clouds Clouds and Visibility OK
Pressure 1007
Change No Significant change. Runway 29: Wet or puddles, with <1mm, friction coefficient 0.60.
Raw UWKD 202300Z 33005MPS CAVOK 04/01 Q1007 R29/2/0060 NOSIG RMK QFE744/0992

VFR

39.2°F / 33.8°F

[More]
Wind 330º 12kt
Visibility >10km
Weather -
Clouds Clouds and Visibility OK
Pressure 1007
Change No Significant change. Runway 29: Wet or puddles, with <1mm, friction coefficient 0.60.
Raw UWKD 202230Z 33006MPS CAVOK 04/01 Q1007 R29/2/0060 NOSIG RMK QFE744/0992

VFR

39.2°F / 33.8°F

[More]
Wind 330º 8kt
Visibility >10km
Weather -
Clouds Clouds and Visibility OK
Pressure 1007
Change No Significant change. Runway 29: Wet or puddles, with <1mm, friction coefficient 0.60.
Raw UWKD 202200Z 33004MPS CAVOK 04/01 Q1007 R29/2/0060 NOSIG RMK QFE744/0992

VFR

39.2°F / 35.6°F

[More]
Wind 330º 10kt
Visibility >10km
Weather -
Clouds Clouds and Visibility OK
Pressure 1007
Change No Significant change. Runway 29: Wet or puddles, with <1mm, friction coefficient 0.60.
Raw UWKD 202130Z 33005MPS CAVOK 04/02 Q1007 R29/2/0060 NOSIG RMK QFE744/0992

VFR

39.2°F / 35.6°F

[More]
Wind 320º 10kt
Visibility >10km
Weather -
Clouds Clouds and Visibility OK
Pressure 1007
Change No Significant change. Runway 29: Wet or puddles, with <1mm, friction coefficient 0.60.
Raw UWKD 202100Z 32005MPS CAVOK 04/02 Q1007 R29/2/0060 NOSIG RMK QFE744/0992

VFR

37.4°F / 33.8°F

[More]
Wind 310º 8kt
Visibility >10km
Weather -
Clouds Clouds and Visibility OK
Pressure 1007
Change No Significant change. Runway 29: Wet or puddles, with <1mm, friction coefficient 0.60.
Raw UWKD 202030Z 31004MPS CAVOK 03/01 Q1007 R29/2/0060 NOSIG RMK QFE744/0993

VFR

37.4°F / 33.8°F

[More]
Wind 340º 10kt
Visibility >10km
Weather -
Clouds Clouds and Visibility OK
Pressure 1008
Change No Significant change. Runway 29: Wet or puddles, with <1mm, friction coefficient 0.60.
Raw UWKD 202000Z 34005MPS CAVOK 03/01 Q1008 R29/2/0060 NOSIG RMK QFE745/0993

VFR

39.2°F / 33.8°F

[More]
Wind 340º 10kt
Visibility >10km
Weather -
Clouds Clouds and Visibility OK
Pressure 1008
Change No Significant change. Runway 29: Wet or puddles, with <1mm, friction coefficient 0.60.
Raw UWKD 201930Z 34005MPS CAVOK 04/01 Q1008 R29/2/0060 NOSIG RMK QFE745/0994

VFR

41°F / 33.8°F

[More]
Wind 360º 8kt
Visibility >10km
Weather -
Clouds Broken Clouds 4900ft
Pressure 1008
Change No Significant change. Runway 29: Wet or puddles, with <1mm, friction coefficient 0.60.
Raw UWKD 201900Z 36004MPS 9999 BKN049 05/01 Q1008 R29/2/0060 NOSIG RMK QFE745/0994

VFR

41°F / 33.8°F

[More]
Wind 330º 8kt
Visibility >10km
Weather -
Clouds Few Clouds 4400ft
Pressure 1008
Change No Significant change. Runway 29: Wet or puddles, with <1mm, friction coefficient 0.60.
Raw UWKD 201830Z 33004MPS 9999 FEW044 05/01 Q1008 R29/2/0060 NOSIG RMK QFE745/0994

VFR

41°F / 33.8°F

[More]
Wind 330º 8kt
Visibility >10km
Weather -
Clouds Clouds and Visibility OK
Pressure 1008
Change No Significant change. Runway 29: Wet or puddles, with <1mm, friction coefficient 0.60.
Raw UWKD 201800Z 33004MPS CAVOK 05/01 Q1008 R29/2/0060 NOSIG RMK QFE745/0994

VFR

41°F / 33.8°F

[More]
Wind 340º 10kt
Visibility >10km
Weather -
Clouds Clouds and Visibility OK
Pressure 1009
Change No Significant change. Runway 29: Wet or puddles, with <1mm, friction coefficient 0.60.
Raw UWKD 201730Z 34005MPS CAVOK 05/01 Q1009 R29/2/0060 NOSIG RMK QFE745/0994

VFR

42.8°F / 33.8°F

[More]
Wind 340º 10kt
Visibility >10km
Weather -
Clouds Clouds and Visibility OK
Pressure 1009
Change No Significant change. Runway 29: Wet or puddles, with <1mm, friction coefficient 0.50.
Raw UWKD 201700Z 34005MPS CAVOK 06/01 Q1009 R29/2/0050 NOSIG RMK QFE745/0994

VFR

44.6°F / 35.6°F

[More]
Wind 340º 10kt
Visibility >10km
Weather -
Clouds Broken Clouds 5000ft
Pressure 1009
Change No Significant change. Runway 29: Wet or puddles, with <1mm, friction coefficient 0.50.
Raw UWKD 201630Z 34005MPS 9999 BKN050CB 07/02 Q1009 R29/2/0050 NOSIG RMK QFE745/0994

VFR

44.6°F / 35.6°F

[More]
Wind 340º 8kt
Visibility >10km
Weather -
Clouds Scattered Clouds 5000ft
Pressure 1009
Change No Significant change. Runway 29: Wet or puddles, with <1mm, friction coefficient 0.50.
Raw UWKD 201600Z 34004MPS 9999 SCT050CB 07/02 Q1009 R29/2/0050 NOSIG RMK QFE746/0994

VFR

44.6°F / 39.2°F

[More]
Wind 10º 12kt
Visibility >10km
Weather -
Clouds Broken Clouds 5000ft
Pressure 1009
Change No Significant change. Runway 29: Wet or puddles, with <1mm, friction coefficient 0.50.
Raw UWKD 201530Z 01006MPS 9999 BKN050CB 07/04 Q1009 R29/2/0050 NOSIG RMK QFE746/0994

MVFR

42.8°F / 35.6°F

[More]
Wind 50º variable 360º to 140º 6kt
Visibility >10km
Weather Light Showers Rain 3.00mm precipitation
Clouds Vertical Visibility of 0ft.
Pressure 1009
Change No Significant change. Runway 29: Wet or puddles, with <1mm, friction coefficient 0.50.
Raw UWKD 201500Z 05003MPS 360V140 9999 -SHRA BKN027CB 06/02 Q1009 R29/2/0050 NOSIG RMK QFE746/0994

VFR

42.8°F / 37.4°F

[More]
Wind 60º variable 030º to 090º 6kt
Visibility >10km
Weather -
Clouds Broken Clouds 3900ft
Pressure 1009
Change No Significant change. Runway 29: Wet or puddles, with <1mm, friction coefficient 0.50.
Raw UWKD 201430Z 06003MPS 030V090 9999 BKN039CB 06/03 Q1009 R29/2/0050 NOSIG RMK QFE746/0994

TAF for 55.61°N 49.28°E (UWKD)

From till


Maximum Temperature 9ºC on . Minimum Temperature 2ºC on .
From till Wind 330º 12kt. Gust 23kt. Visibility 10km or more. Broken Clouds 1600ft.
Temporarly from till Visibility 3100m. Light Showers Rain . Broken Clouds 1100ft. Broken Clouds 2000ft.
Temporarly from till Wind 320º 10kt.

Raw: TAF UWKD 210200Z 2103/2203 33006G12MPS 9999 BKN016 TX09/2112Z TN02/2201Z TEMPO 2106/2115 3100 -SHRA BKN011 BKN020CB TEMPO 2116/2118 32005MPS

Radar and precipitation nowcast for 55.61°N 49.28°E

Drizzle
Light
Moderate
Heavy
Very Heavy
Hail

The location marker is placed on 55.61°N 49.28°E. This animation shows the precipitation radar for the last hour, as well as a 1h forecast. Drizzle or light snow fall might be invisible for the radar. Precipitation intensity is colour coded, ranging from light blue to orange.

Current satellite and rain images for 55.61°N 49.28°E

The location marker is placed on 55.61°N 49.28°E. [More]

The real-time satellite image combines visible light during daytime with infrared radiation during nighttime. At night, the image is not dark as infrared radiation can detect temperature differences. Unfortunately, low clouds and fog are difficult to distinguish from ground temperatures and thus can be almost invisible during the night. Meteosat satellite images for Europe are updated in real-time every 5 minutes. GOES-16/GOES-17 (North & South America) and Himawari (Asia) images update every 10 minutes.

Copyright 2022 EUMETSAT / meteoblue. / Copyright 2022 meteoblue

Back to top